When you browse on this site, cookies collect data to enhance your experience and personalize the content and advertising you see.
Visit our Privacy Policy to learn more. By continuing to use the site, you agree to this use of cookies and data.
  • In United Kingdom
  • List of Countries
  • For 7 days
  • Water Temperature
  • Satellite Maps
  • Weather Map
  • Weather Widgets
  • user-avatar
    Login

    Hourly Weather Goroka

    Today, 25 April, Thursday

    Time Temperature Precipitation Wind Pressure Humidity
    00:00 +16°C° 0 mm 0 mps 623 mmHg 93%
    01:00 +15°C° 0 mm 0 mps 622 mmHg 93%
    02:00 +15°C° 0 mm 0 mps 622 mmHg 92%
    03:00 +15°C° 0 mm 0 mps 622 mmHg 91%
    04:00 +14°C° 0 mm 0 mps 621 mmHg 90%
    05:00 +15°C° 0 mm 0 mps 622 mmHg 88%
    06:00 +15°C° 0 mm 0 mps 622 mmHg 87%
    07:00 +15°C° 0 mm 0 mps 622 mmHg 85%
    08:00 +20°C° 0 mm 1 mps 623 mmHg 75%
    09:00 +23°C° 0 mm 1 mps 624 mmHg 64%
    10:00 +27°C° 0 mm 1 mps 626 mmHg 53%
    11:00 +27°C° 0.1 mm 1 mps 625 mmHg 52%
    12:00 +28°C° 0.1 mm 1 mps 625 mmHg 51%
    13:00 +29°C° 0.1 mm 1 mps 625 mmHg 50%
    14:00 +28°C° 0.6 mm 1 mps 624 mmHg 58%
    15:00 +27°C° 0.6 mm 1 mps 624 mmHg 65%
    16:00 +25°C° 0.6 mm 1 mps 623 mmHg 72%
    17:00 +23°C° 1 mm 1 mps 623 mmHg 79%
    18:00 +22°C° 1 mm 1 mps 623 mmHg 87%
    19:00 +20°C° 1 mm 1 mps 622 mmHg 94%
    20:00 +18°C° 0.6 mm 0 mps 623 mmHg 95%
    21:00 +18°C° 0.6 mm 0 mps 623 mmHg 95%
    22:00 +17°C° 0.6 mm 0 mps 623 mmHg 96%
    23:00 +17°C° 0.3 mm 0 mps 623 mmHg 96%

    Tomorrow, 26 April, Friday

    Time Temperature Precipitation Wind Pressure Humidity
    00:00 +17°C° 0.3 mm 0 mps 623 mmHg 96%
    01:00 +17°C° 0.3 mm 0 mps 623 mmHg 96%
    02:00 +16°C° 0.2 mm 0 mps 623 mmHg 96%
    03:00 +16°C° 0.2 mm 0 mps 622 mmHg 95%
    04:00 +16°C° 0.2 mm 0 mps 622 mmHg 95%
    05:00 +16°C° 0 mm 0 mps 622 mmHg 94%
    06:00 +16°C° 0 mm 0 mps 622 mmHg 93%
    07:00 +16°C° 0 mm 0 mps 623 mmHg 92%
    08:00 +21°C° 0 mm 1 mps 624 mmHg 82%
    09:00 +24°C° 0 mm 1 mps 625 mmHg 72%
    10:00 +26°C° 0 mm 1 mps 626 mmHg 62%
    11:00 +27°C° 0.2 mm 1 mps 625 mmHg 60%
    12:00 +27°C° 0.2 mm 2 mps 625 mmHg 59%
    13:00 +28°C° 0.2 mm 2 mps 624 mmHg 58%
    14:00 +27°C° 0.4 mm 2 mps 624 mmHg 61%
    15:00 +26°C° 0.4 mm 1 mps 623 mmHg 65%
    16:00 +26°C° 0.4 mm 1 mps 622 mmHg 68%
    17:00 +24°C° 0.2 mm 1 mps 622 mmHg 76%
    18:00 +22°C° 0.2 mm 1 mps 622 mmHg 84%
    19:00 +18°C° 0.2 mm 0 mps 622 mmHg 92%
    20:00 +17°C° 0 mm 0 mps 622 mmHg 93%
    21:00 +17°C° 0 mm 0 mps 623 mmHg 94%
    22:00 +17°C° 0 mm 0 mps 623 mmHg 94%
    23:00 +17°C° 0.1 mm 0 mps 623 mmHg 94%

    Day after tomorrow, 27 April, Saturday

    Time Temperature Precipitation Wind Pressure Humidity
    00:00 +17°C° 0.1 mm 0 mps 623 mmHg 94%
    01:00 +17°C° 0.1 mm 0 mps 623 mmHg 93%
    02:00 +16°C° 0.1 mm 0 mps 622 mmHg 93%
    03:00 +16°C° 0.1 mm 0 mps 622 mmHg 92%
    04:00 +16°C° 0.1 mm 0 mps 621 mmHg 92%
    05:00 +16°C° 0.1 mm 0 mps 622 mmHg 90%
    06:00 +17°C° 0.1 mm 0 mps 622 mmHg 89%
    07:00 +17°C° 0.1 mm 0 mps 623 mmHg 88%
    08:00 +19°C° 0.1 mm 0 mps 624 mmHg 78%
    09:00 +22°C° 0.1 mm 0 mps 625 mmHg 68%
    10:00 +27°C° 0.1 mm 1 mps 626 mmHg 59%
    11:00 +27°C° 0.6 mm 1 mps 626 mmHg 61%
    12:00 +27°C° 0.6 mm 1 mps 625 mmHg 64%
    13:00 +27°C° 0.6 mm 1 mps 624 mmHg 66%
    14:00 +26°C° 1.7 mm 1 mps 624 mmHg 72%
    15:00 +25°C° 1.7 mm 1 mps 623 mmHg 78%
    16:00 +24°C° 1.7 mm 1 mps 622 mmHg 84%
    17:00 +22°C° 2.4 mm 1 mps 622 mmHg 87%
    18:00 +21°C° 2.4 mm 1 mps 622 mmHg 91%
    19:00 +18°C° 2.4 mm 0 mps 622 mmHg 94%
    20:00 +18°C° 0.9 mm 0 mps 623 mmHg 94%
    21:00 +17°C° 0.9 mm 0 mps 623 mmHg 94%
    22:00 +17°C° 0.9 mm 0 mps 623 mmHg 93%
    23:00 +17°C° 0.3 mm 0 mps 623 mmHg 93%

    28 April, Sunday

    Time Temperature Precipitation Wind Pressure Humidity
    00:00 +17°C° 0.3 mm 0 mps 623 mmHg 92%
    01:00 +16°C° 0.3 mm 0 mps 622 mmHg 92%
    02:00 +16°C° 0.1 mm 0 mps 622 mmHg 92%
    03:00 +16°C° 0.1 mm 0 mps 622 mmHg 92%
    04:00 +16°C° 0.1 mm 0 mps 621 mmHg 92%
    05:00 +16°C° 0 mm 0 mps 622 mmHg 91%
    06:00 +16°C° 0 mm 0 mps 622 mmHg 91%
    07:00 +18°C° 0 mm 1 mps 623 mmHg 91%
    08:00 +20°C° 0 mm 1 mps 624 mmHg 82%
    09:00 +22°C° 0 mm 1 mps 625 mmHg 73%
    10:00 +25°C° 0 mm 1 mps 626 mmHg 65%
    11:00 +25°C° 0.1 mm 1 mps 625 mmHg 62%
    12:00 +26°C° 0.1 mm 1 mps 625 mmHg 58%
    13:00 +27°C° 0.1 mm 1 mps 624 mmHg 55%
    14:00 +26°C° 0.3 mm 1 mps 624 mmHg 61%
    15:00 +25°C° 0.3 mm 1 mps 623 mmHg 67%
    16:00 +24°C° 0.3 mm 1 mps 622 mmHg 73%
    17:00 +23°C° 0.2 mm 1 mps 622 mmHg 79%
    18:00 +21°C° 0.2 mm 1 mps 622 mmHg 85%
    19:00 +17°C° 0.2 mm 0 mps 622 mmHg 91%
    20:00 +17°C° 0.1 mm 0 mps 623 mmHg 91%
    21:00 +17°C° 0.1 mm 0 mps 623 mmHg 91%
    22:00 +17°C° 0.1 mm 0 mps 623 mmHg 90%
    23:00 +16°C° 0.3 mm 0 mps 623 mmHg 90%

    29 April, Monday

    Time Temperature Precipitation Wind Pressure Humidity
    00:00 +16°C° 0.3 mm 0 mps 623 mmHg 90%
    01:00 +16°C° 0.3 mm 0 mps 622 mmHg 91%
    02:00 +16°C° 0.1 mm 0 mps 622 mmHg 91%
    03:00 +16°C° 0.1 mm 0 mps 622 mmHg 91%
    04:00 +16°C° 0.1 mm 0 mps 622 mmHg 92%
    05:00 +16°C° 0 mm 0 mps 622 mmHg 91%
    06:00 +16°C° 0 mm 0 mps 623 mmHg 91%
    07:00 +16°C° 0 mm 0 mps 623 mmHg 90%
    08:00 +21°C° 0 mm 1 mps 624 mmHg 81%
    09:00 +23°C° 0 mm 1 mps 625 mmHg 72%
    10:00 +25°C° 0 mm 1 mps 626 mmHg 63%
    11:00 +25°C° 0.4 mm 1 mps 625 mmHg 67%
    12:00 +25°C° 0.4 mm 1 mps 624 mmHg 70%
    13:00 +25°C° 0.4 mm 1 mps 623 mmHg 73%
    14:00 +24°C° 0.7 mm 1 mps 623 mmHg 77%
    15:00 +23°C° 0.7 mm 1 mps 623 mmHg 81%
    16:00 +22°C° 0.7 mm 1 mps 622 mmHg 85%
    17:00 +21°C° 0.1 mm 1 mps 622 mmHg 88%
    18:00 +20°C° 0.1 mm 1 mps 622 mmHg 91%
    19:00 +17°C° 0.1 mm 0 mps 623 mmHg 94%
    20:00 +17°C° 0.1 mm 0 mps 623 mmHg 93%
    21:00 +17°C° 0.1 mm 0 mps 623 mmHg 93%
    22:00 +16°C° 0.1 mm 0 mps 623 mmHg 93%
    23:00 +16°C° 0.2 mm 0 mps 623 mmHg 93%

    30 April, Tuesday

    Time Temperature Precipitation Wind Pressure Humidity
    00:00 +16°C° 0.2 mm 0 mps 622 mmHg 93%
    01:00 +16°C° 0.2 mm 0 mps 622 mmHg 93%
    02:00 +16°C° 0.1 mm 0 mps 622 mmHg 93%
    03:00 +16°C° 0.1 mm 0 mps 622 mmHg 93%
    04:00 +16°C° 0.1 mm 0 mps 622 mmHg 93%
    05:00 +16°C° 0.2 mm 0 mps 622 mmHg 93%
    06:00 +16°C° 0.2 mm 0 mps 623 mmHg 92%
    07:00 +16°C° 0.2 mm 0 mps 623 mmHg 92%
    08:00 +17°C° 0.5 mm 0 mps 624 mmHg 89%
    09:00 +20°C° 0.5 mm 1 mps 624 mmHg 86%
    10:00 +21°C° 0.5 mm 1 mps 624 mmHg 83%
    11:00 +22°C° 0.5 mm 1 mps 624 mmHg 81%
    12:00 +23°C° 0.5 mm 1 mps 624 mmHg 78%
    13:00 +23°C° 0.5 mm 1 mps 623 mmHg 76%
    14:00 +23°C° 0.5 mm 1 mps 623 mmHg 78%
    15:00 +22°C° 0.5 mm 1 mps 622 mmHg 80%
    16:00 +21°C° 0.5 mm 1 mps 622 mmHg 83%
    17:00 +19°C° 0.4 mm 0 mps 622 mmHg 86%
    18:00 +18°C° 0.4 mm 0 mps 622 mmHg 90%
    19:00 +17°C° 0.4 mm 0 mps 623 mmHg 93%
    20:00 +17°C° 0.3 mm 0 mps 623 mmHg 93%
    21:00 +16°C° 0.3 mm 0 mps 623 mmHg 94%
    22:00 +16°C° 0.3 mm 0 mps 623 mmHg 94%
    23:00 +16°C° 0.4 mm 0 mps 623 mmHg 93%
    Show more